Wind_Speed
15 14 12 9 8 10 8 7 7 7 9 7 7 5 7 10 11 11 12 12 12 13 14 15 16 16 17 17 16 16 15 15 14 12 10 9 8 8 7 5 4 3 3 3
15 14 13 13 13 13 10 9 7 7 10 8 7 7 7 8 10 11 11 11 12 12 13 14 15 16 16 16 16 15 15 15 14 13 11 9 8 7 6 5 4 3 3 3
16 13 14 16 14 13 12 10 8 9 10 9 8 9 11 8 9 9 11 12 12 12 13 14 15 15 15 15 15 15 16 15 15 13 12 10 8 7 5 5 4 4 3 3
17 16 17 17 15 14 12 11 11 11 10 10 9 12 14 12 11 10 10 10 11 12 13 14 14 15 15 15 15 15 15 15 14 13 12 10 8 7 5 5 4 4 4 4
19 19 19 19 17 14 13 13 13 12 12 11 9 11 14 14 11 10 11 11 11 11 12 13 14 15 15 15 15 15 15 15 14 13 11 9 9 8 6 5 5 5 5 5
20 20 20 19 18 17 16 15 13 12 11 11 9 11 13 14 12 12 12 12 12 12 12 13 14 15 15 15 16 16 15 15 14 13 11 9 9 8 6 6 7 6 6 6
22 21 21 20 19 19 17 15 13 11 12 12 11 11 14 14 12 13 13 13 12 11 12 13 14 14 15 16 16 15 15 15 14 13 12 10 9 9 8 8 8 8 8 7
20 21 21 21 20 18 18 17 14 12 12 13 11 11 13 15 16 15 14 13 12 11 12 12 14 14 14 15 16 15 15 15 15 13 12 11 10 10 10 9 9 9 8 8
17 17 19 22 20 20 20 19 16 16 16 16 14 12 13 18 16 13 13 12 11 12 12 12 13 14 14 15 16 16 15 15 14 14 13 12 11 11 10 9 9 9 9 8
21 19 19 20 21 21 20 19 18 19 18 17 16 13 16 18 14 13 13 13 12 12 13 13 14 14 15 17 17 16 15 15 15 14 13 12 12 12 11 10 10 10 10 9
26 24 20 21 23 21 21 22 22 21 19 17 17 15 15 18 17 16 14 14 13 13 14 14 14 16 16 16 16 15 15 16 15 14 14 13 13 13 12 12 11 11 10 11
29 28 24 23 24 23 22 22 22 23 22 21 19 19 15 14 16 16 16 14 14 14 14 15 15 17 16 16 15 15 16 16 16 15 14 14 13 14 13 12 13 13 13 13
30 30 29 25 24 23 23 22 23 23 22 21 20 20 17 16 19 18 17 17 16 15 14 15 16 17 16 15 16 16 16 16 15 15 14 14 14 14 13 13 14 14 14 15
32 33 32 28 23 21 22 23 23 23 23 22 21 21 20 20 20 19 18 18 18 16 15 15 16 16 16 16 16 17 17 16 16 16 15 15 15 14 14 14 15 15 15 15
35 35 34 32 27 24 23 23 23 25 25 24 23 24 23 21 21 21 19 19 19 18 16 16 16 17 16 16 17 17 18 17 16 16 16 15 15 16 16 15 16 16 17 16
36 36 36 36 32 28 26 24 24 25 25 25 25 25 23 23 24 23 22 22 20 20 18 18 17 17 17 17 17 18 18 18 17 17 17 17 17 17 17 17 17 17 17 17
35 36 37 37 33 31 31 27 26 25 25 26 27 28 26 26 25 25 24 23 23 22 21 20 19 18 18 18 18 19 19 19 19 19 19 19 19 19 19 19 19 19 19 20
35 36 36 35 33 34 34 29 27 26 28 29 31 32 32 30 29 27 27 27 26 24 24 22 21 20 20 20 20 21 20 20 21 21 21 21 21 21 21 21 22 22 22 22
36 36 35 35 34 35 34 32 30 29 31 31 32 33 33 32 31 32 30 29 28 26 26 25 24 23 22 22 22 22 22 22 22 22 22 22 23 23 23 23 24 24 24 24
35 35 35 35 34 34 32 31 30 29 33 34 33 35 35 32 32 32 31 30 29 28 27 26 26 25 24 24 24 24 24 23 23 23 23 24 24 24 25 24 24 23 24 23
36 35 35 36 36 36 33 31 31 33 35 34 34 34 34 34 34 34 32 31 30 28 28 27 28 28 27 27 27 26 25 25 25 25 25 25 25 25 25 24 24 23 23 23
34 35 36 36 37 36 33 30 32 34 33 34 34 34 34 34 34 33 33 32 32 30 30 30 29 29 29 29 29 28 28 27 27 27 26 27 26 26 25 26 25 24 24 24
35 36 35 36 37 37 35 35 34 34 34 33 34 35 35 34 33 33 33 33 32 32 32 32 32 31 31 31 31 31 31 30 29 28 28 28 28 27 27 26 26 26 26 26
36 37 37 37 37 38 37 37 38 37 36 36 35 35 35 35 35 34 33 33 33 34 34 34 34 34 33 33 32 32 32 32 32 31 31 30 30 29 29 28 28 28 28 28
36 37 39 40 39 39 38 40 40 38 37 37 36 37 37 36 35 35 35 35 34 35 35 34 35 35 34 35 34 33 32 32 32 32 32 33 32 31 30 30 31 30 29 28
37 38 40 41 41 40 40 39 39 40 39 39 38 37 38 37 37 36 36 36 36 35 35 34 34 34 34 34 35 35 35 35 34 34 34 34 33 32 32 32 32 32 31 30
Wind_Direction
203 203 202 200 217 230 219 210 220 242 262 273 282 291 307 320 334 345 350 353 3 7 9 10 11 11 9 7 6 4 4 2 3 2 357 353 352 356 353 351 345 333 319 291
209 212 209 209 218 226 221 220 222 247 269 268 274 271 275 300 319 327 335 345 356 1 3 6 6 5 4 4 3 1 0 357 355 354 352 345 341 347 356 357 348 333 316 305
211 217 223 221 222 226 219 223 232 244 257 270 282 281 281 291 303 312 327 339 347 354 356 358 0 -0 359 1 0 358 356 354 351 349 346 343 344 341 347 353 354 342 324 309
217 217 224 225 226 221 223 230 239 244 250 266 271 282 284 291 296 307 317 329 341 346 350 351 353 355 355 357 357 355 354 352 349 347 346 339 336 337 338 334 337 331 323 310
220 220 226 229 226 221 224 231 239 243 250 256 257 278 287 294 289 301 310 322 330 336 343 345 347 350 351 352 352 352 351 351 350 348 345 337 331 331 334 335 328 318 305 300
222 227 229 231 229 223 225 233 240 243 252 260 264 273 281 277 285 300 304 312 318 325 333 338 342 344 346 346 346 346 346 346 345 344 341 337 331 327 328 331 330 324 309 299
227 227 230 230 229 228 227 230 238 250 262 265 259 263 270 274 283 283 290 300 308 314 322 330 335 339 341 343 342 341 341 341 341 343 341 336 332 330 330 327 327 326 319 310
235 235 234 234 230 228 230 226 227 240 252 257 246 246 262 273 277 280 285 291 301 308 316 327 333 336 337 339 342 342 340 340 341 342 338 335 332 328 327 323 323 321 317 312
226 243 244 244 239 227 228 224 226 244 255 268 266 248 258 271 277 282 289 291 296 303 313 323 329 333 337 338 339 340 341 341 339 338 335 332 330 328 326 322 316 312 310 305
214 224 232 244 242 231 226 226 227 235 248 257 262 255 257 265 274 283 289 288 292 298 307 316 323 328 332 335 334 335 338 338 337 334 330 328 327 324 322 321 316 310 306 304
217 221 223 232 236 233 230 225 225 231 235 248 262 258 255 266 276 281 281 285 285 293 304 310 316 322 327 330 330 331 334 335 334 332 331 329 327 323 318 318 317 312 307 304
224 223 223 229 238 236 232 232 228 231 232 235 250 260 259 268 269 272 279 282 287 290 298 306 313 318 322 327 328 329 333 332 332 331 329 328 326 326 322 319 317 315 312 308
227 227 225 224 232 239 233 233 233 232 236 238 246 259 260 261 269 271 275 277 281 285 290 298 306 312 316 323 327 329 330 331 332 330 325 323 323 325 324 319 317 316 314 311
227 228 226 225 229 237 241 236 234 232 234 240 242 251 253 255 258 265 265 271 277 280 282 291 299 305 311 317 320 325 327 328 328 325 323 319 319 320 321 319 319 316 313 314
229 229 228 224 222 223 232 239 235 232 230 234 242 246 250 253 259 259 262 269 277 282 281 287 292 298 302 307 310 315 319 320 322 321 320 319 314 313 316 315 314 314 313 315
231 231 229 227 223 225 228 231 238 238 235 235 242 247 250 251 254 256 262 268 273 279 281 285 287 292 298 302 305 308 310 314 315 317 317 317 314 312 311 310 309 309 311 312
233 232 232 231 227 228 230 227 230 235 236 235 237 242 244 247 251 254 258 265 271 274 278 281 285 289 292 296 298 301 303 306 308 310 310 310 309 310 309 307 307 307 307 308
234 233 233 233 230 231 231 229 232 234 234 234 237 240 245 248 254 257 261 265 268 271 275 277 282 284 287 289 292 295 297 302 305 305 305 306 306 306 306 305 306 305 304 304
233 233 232 231 233 235 234 232 231 234 236 238 240 242 245 247 252 255 258 261 264 267 270 274 276 278 281 284 286 289 293 297 300 301 301 303 303 303 302 303 304 304 303 303
232 231 231 230 230 232 235 235 234 233 238 238 240 242 244 246 250 256 258 260 261 264 267 270 272 274 278 280 282 284 288 292 295 298 299 301 303 302 302 301 302 303 302 303
232 232 231 231 232 234 232 230 232 233 238 240 242 245 247 249 252 255 258 259 262 263 265 267 269 271 274 277 279 281 285 289 293 295 296 299 302 303 302 301 300 300 301 303
233 235 235 233 232 235 235 235 234 235 237 241 243 245 248 250 252 255 257 259 261 262 263 265 268 270 271 273 276 279 282 284 287 290 292 294 296 298 300 300 299 300 301 301
226 228 232 234 235 234 235 237 239 239 239 241 244 245 249 252 253 254 256 257 259 260 261 264 266 268 270 270 272 275 277 279 282 285 287 290 292 294 298 300 299 300 301 300
225 225 227 229 231 233 234 235 237 240 241 243 246 248 249 251 253 254 256 256 257 259 261 263 265 267 268 268 269 271 273 276 278 282 284 286 288 292 296 297 296 297 298 298
225 228 230 230 232 234 235 237 238 240 243 245 246 248 250 252 253 254 255 256 258 260 261 262 264 266 267 267 268 269 273 275 277 279 281 284 286 288 293 295 295 295 296 297
227 228 230 231 231 233 235 237 239 241 243 245 246 248 249 252 254 254 256 258 260 262 262 263 264 266 267 268 268 269 272 275 277 279 281 283 286 287 289 292 293 294 294 294
Height
5928 5931 5933 5937 5940 5940 5942 5945 5947 5948 5946 5945 5943 5942 5942 5939 5937 5935 5933 5931 5929 5927 5925 5923 5921 5919 5917 5915 5913 5911 5909 5907 5905 5903 5902 5901 5900 5899 5899 5898 5898 5898 5898 5898
5927 5929 5932 5935 5937 5938 5940 5943 5945 5946 5945 5944 5943 5942 5941 5940 5938 5936 5934 5931 5929 5928 5925 5924 5922 5920 5918 5916 5914 5912 5909 5907 5905 5903 5902 5901 5900 5899 5899 5898 5898 5898 5898 5898
5924 5929 5930 5932 5934 5936 5939 5942 5943 5944 5943 5942 5942 5941 5939 5937 5936 5934 5933 5931 5929 5928 5926 5924 5922 5920 5918 5916 5914 5912 5910 5908 5905 5904 5902 5900 5899 5899 5899 5898 5898 5897 5897 5898
5921 5925 5927 5929 5931 5934 5937 5939 5940 5941 5941 5941 5942 5941 5938 5936 5934 5932 5930 5930 5929 5928 5926 5924 5922 5920 5918 5916 5914 5912 5910 5908 5905 5904 5902 5900 5899 5899 5898 5898 5897 5897 5897 5897
5918 5922 5923 5926 5929 5931 5934 5936 5937 5938 5939 5938 5939 5939 5937 5934 5931 5931 5929 5929 5929 5928 5926 5924 5922 5920 5918 5916 5914 5912 5910 5908 5905 5903 5901 5900 5899 5898 5898 5897 5897 5896 5896 5896
5915 5918 5920 5923 5925 5928 5930 5932 5933 5934 5936 5937 5938 5938 5936 5932 5930 5930 5929 5929 5928 5927 5926 5924 5921 5919 5918 5915 5913 5911 5909 5907 5905 5903 5901 5900 5899 5898 5897 5897 5896 5895 5895 5895
5911 5914 5917 5919 5921 5924 5927 5930 5932 5933 5934 5934 5936 5936 5935 5931 5930 5931 5929 5928 5927 5926 5924 5923 5921 5919 5917 5915 5913 5910 5908 5906 5904 5903 5901 5899 5898 5897 5897 5896 5895 5894 5894 5894
5907 5911 5913 5915 5917 5921 5923 5927 5929 5932 5933 5932 5931 5933 5932 5929 5929 5928 5927 5926 5925 5924 5923 5921 5919 5918 5916 5914 5911 5910 5908 5905 5903 5902 5900 5899 5898 5897 5896 5895 5894 5893 5892 5892
5906 5908 5911 5911 5914 5917 5920 5922 5926 5929 5928 5928 5928 5929 5929 5927 5925 5925 5924 5924 5923 5922 5921 5919 5918 5916 5914 5912 5910 5908 5906 5904 5903 5901 5899 5898 5897 5896 5895 5894 5893 5892 5891 5890
5900 5904 5907 5908 5910 5912 5916 5919 5923 5924 5926 5926 5926 5925 5925 5922 5921 5922 5922 5922 5921 5920 5918 5917 5916 5914 5913 5911 5908 5906 5905 5903 5901 5899 5898 5897 5896 5894 5893 5892 5891 5890 5889 5889
5894 5898 5902 5904 5905 5908 5911 5914 5917 5920 5922 5923 5924 5924 5919 5920 5920 5920 5919 5919 5918 5918 5916 5914 5913 5912 5911 5908 5906 5905 5903 5901 5899 5898 5896 5895 5894 5893 5891 5890 5889 5888 5888 5887
5888 5892 5895 5900 5902 5903 5906 5909 5912 5915 5916 5918 5919 5920 5915 5918 5917 5916 5916 5916 5916 5915 5914 5912 5911 5910 5909 5906 5904 5903 5901 5899 5897 5896 5894 5893 5892 5891 5890 5889 5888 5886 5885 5884
5882 5885 5889 5893 5898 5899 5901 5904 5907 5910 5912 5913 5916 5917 5914 5914 5913 5913 5913 5913 5913 5912 5911 5911 5910 5908 5906 5904 5903 5901 5900 5898 5896 5894 5893 5891 5890 5889 5888 5886 5885 5884 5883 5881
5874 5877 5882 5888 5892 5895 5896 5899 5902 5905 5907 5909 5911 5911 5910 5910 5910 5909 5909 5908 5909 5908 5908 5908 5907 5906 5904 5903 5901 5900 5898 5896 5894 5893 5891 5890 5889 5887 5886 5885 5883 5882 5881 5879
5866 5870 5874 5879 5884 5888 5891 5893 5895 5898 5901 5904 5906 5905 5905 5904 5904 5904 5904 5904 5905 5904 5905 5904 5904 5904 5902 5901 5899 5898 5896 5895 5892 5891 5889 5888 5887 5885 5884 5882 5881 5880 5878 5876
5858 5862 5866 5871 5876 5880 5883 5887 5890 5893 5895 5898 5899 5899 5899 5899 5899 5899 5900 5901 5900 5901 5901 5901 5901 5901 5900 5898 5897 5895 5894 5892 5890 5888 5887 5886 5884 5883 5881 5880 5878 5877 5875 5873
5850 5855 5859 5863 5869 5872 5875 5880 5884 5887 5889 5891 5892 5892 5893 5893 5892 5894 5896 5897 5897 5897 5897 5898 5898 5897 5896 5895 5894 5893 5891 5890 5888 5887 5885 5883 5882 5880 5878 5876 5875 5873 5871 5869
5843 5847 5851 5856 5861 5864 5870 5874 5877 5879 5881 5882 5884 5885 5886 5887 5888 5889 5890 5891 5892 5893 5893 5892 5893 5893 5892 5891 5890 5889 5887 5886 5885 5884 5882 5880 5878 5876 5874 5872 5871 5869 5867 5865
5835 5839 5844 5848 5852 5856 5862 5865 5869 5871 5872 5875 5877 5878 5879 5880 5882 5883 5884 5885 5887 5887 5887 5888 5888 5887 5887 5887 5886 5885 5884 5883 5881 5880 5878 5876 5874 5872 5870 5868 5866 5863 5861 5860
5828 5831 5836 5840 5844 5848 5854 5857 5860 5863 5863 5866 5867 5869 5871 5873 5875 5876 5878 5879 5880 5881 5882 5882 5882 5881 5881 5882 5881 5880 5879 5878 5877 5875 5873 5871 5869 5867 5865 5863 5860 5858 5856 5854
5820 5823 5828 5831 5835 5838 5843 5846 5851 5854 5855 5857 5859 5861 5863 5865 5867 5869 5871 5872 5873 5874 5875 5875 5875 5876 5876 5876 5875 5875 5874 5873 5872 5870 5868 5866 5864 5862 5859 5857 5855 5853 5851 5849
5813 5817 5820 5824 5827 5832 5835 5837 5840 5842 5845 5848 5850 5853 5855 5857 5859 5861 5863 5865 5866 5867 5868 5868 5869 5869 5869 5869 5868 5868 5868 5867 5866 5864 5862 5860 5859 5857 5854 5852 5849 5847 5845 5843
5803 5808 5812 5816 5820 5823 5825 5828 5830 5833 5837 5839 5842 5844 5847 5849 5851 5853 5855 5857 5858 5859 5860 5861 5861 5861 5861 5861 5861 5861 5861 5860 5859 5857 5856 5854 5852 5850 5848 5846 5844 5841 5839 5837
5793 5797 5802 5806 5809 5812 5815 5818 5821 5825 5828 5831 5833 5835 5838 5840 5842 5845 5847 5848 5850 5851 5852 5853 5853 5853 5853 5853 5853 5852 5852 5851 5851 5850 5848 5847 5845 5843 5841 5839 5837 5835 5833 5830
5783 5788 5792 5795 5799 5803 5805 5808 5812 5815 5818 5822 5825 5827 5829 5831 5833 5836 5838 5839 5841 5842 5843 5844 5844 5844 5844 5844 5844 5844 5843 5842 5842 5841 5841 5839 5837 5836 5835 5833 5830 5828 5826 5824
5775 5779 5783 5785 5788 5792 5796 5799 5802 5805 5809 5812 5814 5817 5819 5822 5824 5826 5828 5830 5831 5833 5834 5835 5835 5836 5836 5836 5835 5835 5835 5834 5833 5833 5832 5831 5830 5828 5827 5825 5823 5821 5819 5817